CAPE
0 0 0 0 0 0 0 0 0 0 0 0 0 1 15 22 136 162 70 0 0 23 1025 528 1486 1619 1555 1413 1158 975 1130 1524 1869 2123 2076 1807 1474 1017 537 231 79 34 21 0 0 0 0 0 0
0 0 0 0 0 0 0 0 0 0 0 0 0 16 114 139 104 34 67 0 0 232 763 186 1379 1470 1554 1449 1271 1004 878 966 1357 1507 1434 1244 963 529 149 74 37 9 0 0 0 0 0 0 0
0 0 0 0 0 0 0 0 0 0 0 0 0 4 53 100 88 0 29 8 34 348 587 307 1324 1328 1510 1468 1290 1143 918 762 822 931 978 849 618 480 207 99 52 4 5 20 12 5 0 2 8
0 0 0 0 0 0 0 0 0 2 0 0 0 9 0 48 114 3 27 19 74 276 382 1052 1215 1269 1383 1347 1221 1071 939 755 659 655 643 491 254 249 151 109 98 88 20 17 11 17 26 48 70
0 0 0 0 0 0 0 0 0 0 4 8 12 35 12 0 109 12 0 0 72 87 356 1169 1197 1317 1363 1295 1098 920 810 656 554 598 450 303 275 237 160 159 123 95 77 23 27 52 94 126 167
0 0 0 0 0 0 0 0 0 0 0 0 15 61 169 66 91 31 0 0 1 63 250 1386 1256 1267 1151 1339 1215 974 762 656 582 528 545 350 344 298 248 202 194 236 268 258 148 215 232 289 358
0 0 0 0 0 0 0 0 0 0 0 0 8 96 175 59 107 11 0 0 0 65 222 1286 1501 866 1265 1339 1198 1038 893 792 671 588 492 487 475 473 432 434 465 480 550 605 718 807 718 675 595
0 0 0 0 0 0 0 0 0 0 0 0 6 17 191 94 39 62 0 0 2 78 194 320 1514 521 268 379 1402 1207 993 895 768 732 709 637 629 661 616 504 554 661 743 824 963 1060 1144 1094 925
0 0 0 0 0 0 0 0 0 0 0 1 1 28 20 51 159 34 1 0 35 68 172 414 662 752 321 128 456 1337 1064 1008 887 770 780 459 17 46 52 109 279 781 913 995 1071 1221 1344 1292 1051
0 0 0 0 0 0 0 0 0 0 0 0 0 0 0 139 96 11 0 26 64 70 117 307 519 761 828 260 416 838 225 336 263 105 106 56 12 28 4 94 361 900 1030 1128 1226 1406 1330 1113 783
0 0 0 0 0 0 0 0 0 0 0 0 0 0 0 9 64 52 23 47 75 117 127 185 1639 1308 953 704 353 488 849 634 784 737 838 558 24 84 52 112 242 329 801 388 824 900 974 870 967
0 0 0 0 0 0 0 0 0 0 0 0 20 32 17 0 0 12 58 110 183 207 236 282 1019 2509 2463 1107 827 775 667 932 1079 936 1680 896 760 646 547 273 190 963 458 629 745 620 1198 1057 1236
0 0 0 0 0 0 0 0 0 0 0 0 1 24 16 0 0 1 1 13 27 25 26 29 168 3101 3026 2832 1145 1481 1523 989 1024 1213 2030 1383 756 1027 478 886 402 576 562 652 788 733 1298 1551 1255
0 0 0 0 0 0 0 0 0 0 0 0 0 0 0 0 0 4 0 15 14 18 24 9 288 3348 2715 3023 3425 2691 2823 1261 1179 998 1661 2299 1625 1744 706 1107 739 723 561 535 685 931 930 1183 1276
0 0 0 0 0 0 0 0 0 0 0 0 0 0 0 0 1 2 0 8 15 4 26 137 289 1444 3440 2738 2679 2899 1626 1574 1154 1080 2783 2798 2601 2293 1939 1174 986 945 876 1529 1178 1632 1181 958 1241
0 0 0 0 0 0 1 0 0 0 0 0 2 0 0 3 11 2 0 0 28 23 59 181 44 0 745 2113 1893 1819 1107 1369 1288 1161 1437 2553 3044 2632 2555 1227 1276 1310 999 834 727 609 663 771 796
0 0 0 0 0 0 3 0 0 0 0 0 6 13 6 2 7 76 1 0 12 74 211 180 359 96 357 1849 1203 1580 2287 1525 1208 1246 1198 2473 2078 2048 2251 1367 1525 2264 1095 951 835 812 892 848 585
0 0 0 0 0 0 0 0 0 0 0 0 0 27 24 12 1 41 10 0 9 10 909 1282 853 1475 2066 1257 1897 657 757 1247 1310 1204 1263 2287 1969 1870 2341 1687 2212 2012 1186 1048 901 1489 866 659 619
0 0 0 0 0 0 2 0 0 0 0 0 0 31 38 48 31 17 18 0 5 343 816 1112 979 2680 1598 700 353 454 986 1365 1454 1406 1906 1824 1997 1940 2756 1786 2165 2118 1854 1994 2147 1150 1034 758 1537
0 0 0 0 0 0 4 0 0 0 0 0 0 14 3 14 29 35 7 21 113 304 815 1176 1821 2242 2426 1104 1419 1183 1506 1145 1628 1556 2176 1942 2052 2142 2174 2579 2389 2206 1649 2075 1509 1844 1308 1758 2094
0 0 0 0 0 0 0 2 0 0 1 0 0 0 9 0 11 25 8 30 51 197 516 691 1438 1978 2467 2207 1564 1860 1967 2464 1952 2086 2180 2175 2130 2278 2160 2169 2537 2355 2289 1678 1971 2053 1969 1599 1797
0 0 0 0 0 0 0 1 0 0 0 3 0 0 0 0 0 0 0 11 72 6 33 563 1094 1790 1940 2721 1285 2908 2075 2048 1830 2147 2234 2271 2251 2157 2187 2391 2412 2836 2030 2871 2246 1912 2057 1803 1723
33 23 16 4 0 0 0 36 4 0 2 0 0 0 0 0 0 0 0 0 0 0 0 85 551 1400 1960 2561 2292 1924 2777 1708 1840 1902 3334 3151 2708 2347 2295 2374 2733 2510 1973 2274 2052 2179 1986 1535 1577
10 23 38 28 23 0 0 31 23 7 3 5 3 0 0 0 0 0 0 0 0 0 0 6 387 1199 1429 2345 2198 3677 3565 3309 2259 2816 2629 2409 2301 2154 2449 2409 2650 2835 2271 1974 1646 1815 1562 1490 1410
23 112 0 0 0 0 50 69 27 47 39 10 24 3 0 0 0 0 0 0 0 0 0 0 129 769 1636 1968 2146 2358 3689 4279 4410 3483 2708 2746 2503 2332 2642 2802 2691 2105 1892 1645 1660 1645 1436 1308 1129
13 133 133 0 0 0 125 36 58 1 16 0 0 0 0 0 0 0 0 0 0 0 0 0 32 930 2003 2158 2222 2641 3325 2660 2951 3491 2627 2238 2083 2287 2859 2252 1844 1525 1562 1507 1491 1470 1046 1494 1030
188 106 75 135 4 8 30 59 47 12 4 0 3 0 0 0 0 0 1 22 166 7 0 0 173 1216 2147 2484 2686 3079 3341 3857 3067 3750 3525 1852 2370 1937 1774 1491 1464 1441 1316 1311 1440 875 959 958 957
284 94 134 66 3 10 39 0 71 46 51 5 0 0 0 0 0 4 262 612 683 88 0 333 825 1987 2399 2660 2781 2792 2625 2364 2387 2458 2407 2183 2160 1296 1296 1191 1422 1310 923 840 785 763 729 945 986
208 219 148 226 76 0 112 79 96 106 30 15 2 0 0 0 0 23 689 754 739 253 579 1322 2012 2345 2483 2495 2472 2463 2269 2194 1928 1846 1444 1469 1351 1063 875 911 1131 828 659 610 706 741 1035 434 941
110 266 177 317 135 41 13 16 129 148 86 57 14 0 0 0 0 0 951 582 1137 973 1463 1999 2262 2286 2339 2306 2250 2035 1743 1504 1541 1380 1248 1198 1035 746 645 709 629 417 317 447 948 889 810 595 584
CIN
0 0 0 0 0 0 0 0 0 0 0 0 0 -16 -47 -3 -1 -7 -68 0 0 -59 -285 -506 -421 -361 -338 -312 -301 -285 -256 -197 -139 -90 -66 -57 -64 -92 -153 -189 -256 -346 -392 0 0 0 0 0 0
0 0 0 0 0 0 0 0 0 0 0 0 0 -87 -30 -0 -1 -92 -80 0 0 -139 -265 -395 -461 -407 -357 -323 -294 -287 -284 -254 -191 -152 -145 -135 -143 -178 -248 -292 -340 -421 0 0 0 0 0 0 0
0 0 0 0 0 0 0 0 0 0 0 0 0 -19 -30 -17 -20 0 -82 -123 -127 -119 -217 -320 -501 -445 -380 -338 -310 -289 -281 -287 -263 -234 -214 -205 -218 -220 -269 -305 -350 -55 -428 -411 -434 -476 0 -133 -311
0 0 0 0 0 0 0 0 0 0 0 0 -3 -33 0 -46 -40 -25 -135 -138 -105 -80 -149 -402 -537 -474 -403 -356 -345 -329 -311 -308 -297 -277 -268 -281 -316 -284 -297 -312 -304 -295 -371 -380 -400 -410 -396 -361 -330
0 0 0 0 0 0 0 0 0 0 -0 -5 -26 -17 -34 0 -45 -89 0 0 -94 -91 -96 -267 -526 -448 -390 -370 -369 -369 -356 -346 -335 -310 -315 -336 -325 -310 -307 -288 -310 -318 -311 -357 -364 -327 -289 -269 -240
0 0 0 0 0 0 0 0 0 0 0 0 -10 -5 -1 -4 -36 -49 0 0 -55 -100 -90 -180 -490 -454 -436 -385 -384 -391 -387 -367 -359 -352 -322 -343 -324 -315 -303 -303 -291 -246 -240 -223 -264 -222 -209 -185 -166
0 0 0 0 0 0 0 0 0 0 0 0 -21 0 -1 -1 -22 -30 0 0 0 -82 -94 -155 -347 -496 -422 -395 -404 -402 -406 -396 -373 -364 -352 -311 -314 -297 -287 -262 -244 -217 -181 -157 -114 -80 -85 -95 -116
0 0 0 0 0 0 0 0 0 0 0 0 -9 -27 -0 -1 -53 -50 0 0 -15 -65 -70 -131 -237 -400 -496 -493 -368 -374 -399 -397 -372 -327 -321 -313 -298 -273 -267 -267 -246 -207 -164 -123 -67 -47 -42 -46 -62
0 0 0 0 0 0 0 0 0 0 0 0 -0 -3 -11 -29 -24 -42 -8 0 -40 -57 -49 -64 -92 -200 -327 -346 -414 -361 -381 -359 -353 -341 -318 -355 -400 -295 -424 -408 -310 -192 -130 -88 -59 -42 -28 -26 -45
0 0 0 0 0 0 0 0 0 0 0 0 0 0 -23 -30 -14 -41 0 -32 -41 -41 -27 -37 -65 -103 -149 -175 -221 -381 -420 -460 -487 -499 -477 -513 -375 -224 -245 -393 -308 -169 -104 -71 -52 -24 -24 -40 -61
0 0 0 0 0 0 0 0 0 0 0 0 0 0 0 -5 -19 -12 -17 -32 -15 -6 -5 -23 -59 -96 -100 -92 -131 -187 -246 -311 -345 -357 -324 -355 -384 -328 -372 -334 -330 -283 -151 -209 -113 -85 -69 -66 -24
0 0 0 0 0 0 0 0 0 0 0 0 -0 -2 -15 0 -1 -42 -27 -1 -0 0 -1 -4 -23 -118 -112 -78 -103 -122 -166 -173 -209 -284 -220 -281 -286 -257 -241 -291 -268 -153 -192 -175 -93 -122 -30 -34 -1
0 0 0 0 0 0 0 0 0 0 0 0 0 -1 -3 0 0 -22 -14 -58 -33 -19 -36 -44 -41 -84 -139 -169 -97 -104 -103 -95 -129 -155 -166 -248 -276 -233 -286 -177 -227 -143 -181 -130 -107 -64 -5 0 -3
0 0 0 0 0 0 0 0 0 0 0 0 0 0 -0 0 -5 -28 0 -67 -79 -65 -48 -42 -44 -66 -149 -140 -138 -113 -99 -96 -116 -143 -132 -166 -200 -144 -253 -180 -197 -162 -140 -135 -84 -58 -38 -12 -1
0 0 0 0 0 0 0 0 0 0 0 0 0 0 0 0 -5 -16 0 -57 -82 -80 -86 -65 -64 -60 -60 -85 -116 -146 -138 -128 -155 -147 -49 -73 -134 -118 -120 -163 -196 -165 -132 -22 -28 -0 -24 -38 -7
0 0 0 0 0 0 0 0 0 0 0 0 -65 0 0 -37 -42 -39 0 0 -84 -95 -91 -91 -91 -16 -97 -85 -99 -99 -105 -147 -157 -163 -136 -106 -92 -115 -85 -178 -155 -127 -138 -123 -122 -106 -80 -58 -45
0 0 0 0 0 0 0 0 0 0 0 0 -55 -42 -34 -42 -41 -32 -8 0 -132 -124 -123 -129 -119 -162 -119 -57 -109 -121 -119 -156 -158 -158 -157 -113 -169 -178 -118 -186 -127 -45 -129 -119 -105 -96 -65 -48 -62
0 0 0 0 0 0 0 0 0 0 0 -11 0 -22 -25 -29 -11 -11 -24 0 -110 -154 -119 -122 -137 -80 -64 -101 -125 -172 -120 -152 -179 -161 -195 -133 -193 -193 -130 -134 -69 -71 -128 -115 -108 -31 -62 -76 -35
0 0 0 0 0 0 0 0 0 0 0 -0 -1 -2 -22 -34 -42 -41 -37 0 -111 -147 -152 -166 -162 -77 -144 -178 -191 -141 -125 -114 -141 -180 -177 -194 -194 -186 -94 -126 -73 -55 -52 -20 -1 -49 -34 -43 0
0 0 0 0 0 0 0 0 0 0 0 0 0 -0 -2 -39 -33 -35 -58 -84 -122 -157 -172 -184 -119 -120 -92 -189 -197 -108 -57 -73 -125 -166 -158 -185 -177 -153 -134 -49 -38 -51 -58 -7 -27 -0 -2 0 -0
0 0 0 0 0 0 0 0 0 0 0 0 0 0 -1 0 -52 -64 -45 -73 -126 -167 -202 -193 -167 -140 -84 -135 -132 -114 -83 -62 -121 -116 -153 -164 -146 -127 -123 -75 -16 -20 -1 -8 -0 0 0 -0 -0
0 0 0 0 0 0 0 0 0 0 0 0 0 0 0 0 0 0 0 -147 -145 -94 -151 -172 -176 -123 -109 -83 -165 -38 -79 -88 -121 -86 -114 -134 -118 -128 -93 -38 -14 0 0 -1 0 0 0 0 0
0 0 0 0 0 0 0 0 -0 0 0 0 0 0 0 0 0 0 0 0 0 0 0 -191 -189 -156 -151 -80 -120 -69 -80 -94 -96 -84 -36 -40 -64 -66 -43 -15 -0 0 0 -0 0 0 0 0 0
-1 0 0 0 0 0 0 0 0 0 0 0 0 0 0 0 0 0 0 0 0 0 0 -193 -184 -182 -192 -124 -166 -58 -46 -9 -44 -32 -57 -69 -68 -51 -15 -2 -0 0 0 -0 -0 0 0 0 0
-1 0 0 0 0 0 0 0 -2 -0 -1 -2 -1 -0 0 0 0 0 0 0 0 0 0 0 -261 -232 -177 -140 -168 -137 -29 0 0 -9 -19 -19 -32 -18 -3 -1 0 0 0 -0 0 0 0 0 0
-7 -1 0 0 0 0 0 0 0 -4 -3 0 0 0 0 0 0 0 0 0 0 0 0 0 -353 -188 -114 -147 -139 -94 -30 -30 -12 0 -10 -11 -18 -8 0 0 0 0 0 0 0 -0 0 0 0
0 -2 -23 0 -11 -4 -13 -0 0 0 -7 0 0 0 0 0 0 0 -32 -278 -176 -115 0 0 -277 -133 -101 -90 -67 -38 -4 0 -10 0 -0 -34 -3 -20 -2 -5 -0 0 0 -1 -1 0 0 -0 -0
0 -1 -2 -6 0 0 -8 -2 0 -0 0 -1 0 0 0 0 0 -0 -64 -71 -97 -180 -98 -194 -157 -66 -49 -40 -38 -28 -24 -27 -36 -15 -7 -6 -1 -39 -27 -11 -0 -0 0 0 -0 0 -1 -0 -0
0 0 0 -1 -0 0 0 -0 -1 0 -1 -1 0 -0 0 0 0 -24 -14 -120 -117 -144 -123 -76 -22 -21 -23 -31 -33 -33 -31 -39 -55 -39 -68 -53 -36 -42 -34 -12 -1 0 0 -0 -1 -1 -3 -1 -1
-6 0 -1 -0 0 -5 -4 -8 -28 0 -0 -1 -5 0 0 0 0 0 -12 -149 -51 -54 -27 -22 -12 -12 -17 -25 -32 -38 -53 -75 -66 -73 -75 -64 -44 -37 -30 -5 -4 -25 -21 -1 -1 -1 -2 -0 -0
Wind_Speed
nan nan nan nan nan nan nan nan nan nan nan nan nan nan nan nan 10 20 nan nan nan nan 33 36 33 33 35 38 39 39 40 46 46 45 46 45 44 42 39 36 nan nan nan nan nan nan nan nan nan
nan nan nan nan nan nan nan nan nan nan nan nan nan nan 15 17 27 nan nan nan nan 26 30 32 32 31 32 37 37 38 41 45 46 43 49 50 46 44 44 nan nan nan nan nan nan nan nan nan nan
nan nan nan nan nan nan nan nan nan nan nan nan nan nan nan 21 nan nan nan nan nan 28 29 28 33 30 33 36 38 40 42 43 45 47 51 52 48 44 44 nan nan nan nan nan nan nan nan nan nan
nan nan nan nan nan nan nan nan nan nan nan nan nan nan nan nan 22 nan nan nan nan 25 27 28 33 33 37 38 37 41 43 46 47 47 50 49 48 44 43 43 nan nan nan nan nan nan nan nan nan
nan nan nan nan nan nan nan nan nan nan nan nan nan nan nan nan 26 nan nan nan nan nan 22 27 34 33 36 37 41 41 41 45 46 48 49 47 44 45 45 43 43 nan nan nan nan nan nan 30 26
nan nan nan nan nan nan nan nan nan nan nan nan nan nan 17 nan nan nan nan nan nan nan 22 31 33 37 33 36 40 41 45 45 47 48 47 46 45 46 46 44 43 40 40 40 39 37 33 28 24
nan nan nan nan nan nan nan nan nan nan nan nan nan nan 19 nan 26 nan nan nan nan nan 24 31 32 35 34 37 39 43 44 45 45 44 46 44 46 47 46 42 42 41 40 41 38 34 31 26 23
nan nan nan nan nan nan nan nan nan nan nan nan nan nan 20 nan nan nan nan nan nan nan 26 30 33 36 35 35 37 40 41 45 44 43 47 45 43 45 43 41 41 42 40 40 37 33 29 25 24
nan nan nan nan nan nan nan nan nan nan nan nan nan nan nan nan 35 nan nan nan nan nan 29 30 36 36 33 34 41 44 46 47 43 45 48 45 nan nan nan 40 41 43 42 39 35 32 27 26 23
nan nan nan nan nan nan nan nan nan nan nan nan nan nan nan 42 nan nan nan nan nan nan 29 33 34 35 34 36 40 46 48 45 43 43 47 nan nan nan nan nan 43 47 43 35 32 30 27 25 24
nan nan nan nan nan nan nan nan nan nan nan nan nan nan nan nan nan nan nan nan nan 20 31 36 39 34 33 38 41 40 43 44 43 44 44 44 nan nan nan 38 44 41 40 32 33 31 27 27 25
nan nan nan nan nan nan nan nan nan nan nan nan nan nan nan nan nan nan nan 22 22 25 27 36 45 41 35 35 39 39 41 47 45 46 48 43 40 42 41 40 46 40 34 31 31 30 30 29 27
nan nan nan nan nan nan nan nan nan nan nan nan nan nan nan nan nan nan nan nan nan nan nan nan 35 45 39 38 36 41 43 47 45 46 52 45 40 40 43 40 42 40 31 33 29 29 31 31 29
nan nan nan nan nan nan nan nan nan nan nan nan nan nan nan nan nan nan nan nan nan nan nan nan 40 46 43 40 40 39 45 44 46 46 50 51 41 40 41 43 40 29 32 31 33 28 32 32 30
nan nan nan nan nan nan nan nan nan nan nan nan nan nan nan nan nan nan nan nan nan nan nan 43 43 46 44 40 41 43 45 44 40 42 48 46 43 40 42 41 37 30 29 29 29 31 35 31 35
nan nan nan nan nan nan nan nan nan nan nan nan nan nan nan nan nan nan nan nan nan nan nan 44 nan nan 40 42 43 44 45 43 41 37 43 42 44 41 41 38 37 31 30 31 29 33 34 37 36
nan nan nan nan nan nan nan nan nan nan nan nan nan nan nan nan nan nan nan nan nan nan 44 42 42 nan 38 41 44 44 43 43 38 40 41 43 44 44 37 40 36 32 30 30 34 33 37 37 36
nan nan nan nan nan nan nan nan nan nan nan nan nan nan nan nan nan nan nan nan nan nan 46 42 38 34 41 41 46 45 46 42 38 39 42 44 42 42 41 41 34 32 29 31 34 36 37 37 35
nan nan nan nan nan nan nan nan nan nan nan nan nan nan nan nan nan nan nan nan nan 49 45 40 33 37 40 44 47 49 49 44 39 41 42 46 43 42 43 38 36 30 31 32 36 37 36 35 38
nan nan nan nan nan nan nan nan nan nan nan nan nan nan nan nan nan nan nan nan 49 46 44 38 38 42 43 48 49 47 51 45 42 43 42 46 42 41 43 35 37 33 34 36 36 35 35 35 34
nan nan nan nan nan nan nan nan nan nan nan nan nan nan nan nan nan nan nan nan nan 46 45 43 44 42 45 53 52 51 45 42 44 41 42 42 39 43 41 34 33 38 33 37 35 36 34 32 31
nan nan nan nan nan nan nan nan nan nan nan nan nan nan nan nan nan nan nan nan nan nan nan 46 42 41 50 54 50 47 40 42 36 36 40 42 41 44 37 33 35 38 34 37 37 34 31 27 22
nan nan nan nan nan nan nan nan nan nan nan nan nan nan nan nan nan nan nan nan nan nan nan nan 45 42 51 52 47 41 35 29 32 35 45 40 41 40 37 34 37 36 30 35 33 33 27 22 22
nan nan nan nan nan nan nan nan nan nan nan nan nan nan nan nan nan nan nan nan nan nan nan nan 45 46 48 47 40 27 26 23 32 40 40 39 37 32 33 36 36 32 29 33 31 30 22 18 19
nan 2 nan nan nan nan nan nan nan nan nan nan nan nan nan nan nan nan nan nan nan nan nan nan 46 50 46 37 30 23 24 29 36 41 36 40 34 32 32 35 33 31 29 29 29 27 22 21 17
nan 22 19 nan nan nan 12 nan nan nan nan nan nan nan nan nan nan nan nan nan nan nan nan nan nan 46 35 28 26 26 31 29 35 32 36 34 33 33 37 32 32 30 32 26 29 28 20 23 19
6 26 nan 18 nan nan nan nan nan nan nan nan nan nan nan nan nan nan nan nan 31 nan nan nan 37 34 28 29 28 30 28 34 33 36 33 34 35 37 34 32 31 33 31 27 33 22 22 21 20
8 nan 11 nan nan nan nan nan nan nan nan nan nan nan nan nan nan nan 41 34 32 nan nan 31 31 29 28 29 29 28 32 33 35 32 31 34 34 34 33 32 32 31 27 27 28 24 22 19 22
9 9 12 9 nan nan 8 nan nan 19 nan nan nan nan nan nan nan nan 44 37 29 28 30 29 28 28 29 29 28 30 33 35 32 31 35 33 33 34 31 30 31 28 26 26 26 18 22 22 25
7 13 22 17 17 nan nan nan 43 33 nan nan nan nan nan nan nan nan 48 40 28 29 32 28 28 29 28 28 30 31 33 31 31 33 32 32 33 30 30 32 31 27 25 25 24 16 22 24 21
Wind_Direction
nan nan nan nan nan nan nan nan nan nan nan nan nan nan nan nan 252 231 nan nan nan nan 334 334 326 327 333 341 340 340 337 336 339 336 340 342 339 338 337 335 nan nan nan nan nan nan nan nan nan
nan nan nan nan nan nan nan nan nan nan nan nan nan nan 187 224 219 nan nan nan nan 325 338 344 340 341 335 335 337 337 336 335 334 336 335 339 339 339 338 nan nan nan nan nan nan nan nan nan nan
nan nan nan nan nan nan nan nan nan nan nan nan nan nan nan 218 nan nan nan nan nan 331 335 339 344 344 341 332 336 335 336 334 335 336 337 337 339 340 338 nan nan nan nan nan nan nan nan nan nan
nan nan nan nan nan nan nan nan nan nan nan nan nan nan nan nan 240 nan nan nan nan 334 338 336 344 344 341 332 332 332 333 334 337 335 335 337 339 341 338 336 nan nan nan nan nan nan nan nan nan
nan nan nan nan nan nan nan nan nan nan nan nan nan nan nan nan 236 nan nan nan nan nan 338 332 339 337 334 331 330 332 334 336 337 335 339 341 340 341 340 340 336 nan nan nan nan nan nan 333 330
nan nan nan nan nan nan nan nan nan nan nan nan nan nan 266 nan nan nan nan nan nan nan 323 319 328 331 336 334 332 335 337 338 338 339 343 344 342 344 341 340 337 335 333 332 334 334 332 330 330
nan nan nan nan nan nan nan nan nan nan nan nan nan nan 244 nan 268 nan nan nan nan nan 319 311 324 330 332 332 330 333 338 340 342 344 344 344 344 343 341 340 337 334 333 332 333 333 332 331 331
nan nan nan nan nan nan nan nan nan nan nan nan nan nan 231 nan nan nan nan nan nan nan 315 314 318 326 330 330 335 338 340 343 342 344 344 345 347 345 341 338 336 336 333 331 333 332 331 328 332
nan nan nan nan nan nan nan nan nan nan nan nan nan nan nan nan 269 nan nan nan nan nan 310 313 316 320 331 328 330 334 339 339 339 342 343 342 nan nan nan 341 337 336 336 333 332 330 327 327 333
nan nan nan nan nan nan nan nan nan nan nan nan nan nan nan 259 nan nan nan nan nan nan 305 307 314 316 314 324 323 337 339 334 335 340 339 nan nan nan nan nan 343 336 336 333 331 330 327 328 326
nan nan nan nan nan nan nan nan nan nan nan nan nan nan nan nan nan nan nan nan nan 296 298 303 305 310 314 314 318 325 329 329 330 337 336 337 nan nan nan 332 333 333 333 323 324 324 321 332 326
nan nan nan nan nan nan nan nan nan nan nan nan nan nan nan nan nan nan nan 283 263 266 282 293 305 305 309 306 317 323 330 329 328 333 334 333 329 332 335 330 335 329 321 322 321 317 324 332 332
nan nan nan nan nan nan nan nan nan nan nan nan nan nan nan nan nan nan nan nan nan nan nan nan 293 301 308 312 318 321 325 326 328 327 330 332 330 331 332 331 335 325 321 318 318 320 322 330 328
nan nan nan nan nan nan nan nan nan nan nan nan nan nan nan nan nan nan nan nan nan nan nan nan 293 297 308 311 315 314 320 326 326 327 328 329 325 329 332 331 331 320 320 319 317 321 324 327 324
nan nan nan nan nan nan nan nan nan nan nan nan nan nan nan nan nan nan nan nan nan nan nan 282 292 296 306 309 312 313 318 322 321 321 320 322 327 331 327 332 325 319 316 315 313 319 322 324 321
nan nan nan nan nan nan nan nan nan nan nan nan nan nan nan nan nan nan nan nan nan nan nan 282 nan nan 297 305 307 308 312 318 318 318 316 321 325 331 329 329 320 315 315 315 319 320 322 322 321
nan nan nan nan nan nan nan nan nan nan nan nan nan nan nan nan nan nan nan nan nan nan 270 274 283 nan 293 299 303 307 311 318 317 316 316 321 325 328 331 326 318 315 316 321 320 319 320 319 317
nan nan nan nan nan nan nan nan nan nan nan nan nan nan nan nan nan nan nan nan nan nan 266 270 277 281 287 291 297 302 306 314 313 312 314 317 318 326 324 322 315 314 318 320 315 317 320 317 317
nan nan nan nan nan nan nan nan nan nan nan nan nan nan nan nan nan nan nan nan nan 262 263 269 277 281 283 294 301 302 304 308 308 308 313 316 315 327 319 318 312 312 319 314 314 315 319 319 312
nan nan nan nan nan nan nan nan nan nan nan nan nan nan nan nan nan nan nan nan 255 259 271 274 280 282 284 290 294 294 297 300 302 305 308 310 317 320 315 313 307 316 313 312 314 318 318 316 310
nan nan nan nan nan nan nan nan nan nan nan nan nan nan nan nan nan nan nan nan nan 266 274 277 279 284 287 292 293 293 292 292 298 303 304 307 318 314 311 315 307 309 311 311 315 320 321 317 309
nan nan nan nan nan nan nan nan nan nan nan nan nan nan nan nan nan nan nan nan nan nan nan 273 277 284 288 292 295 298 294 295 296 301 304 309 314 305 312 309 304 308 309 307 315 317 318 312 311
nan nan nan nan nan nan nan nan nan nan nan nan nan nan nan nan nan nan nan nan nan nan nan nan 278 281 284 292 296 294 293 290 294 301 298 304 303 308 306 301 301 307 311 308 317 318 315 310 313
nan nan nan nan nan nan nan nan nan nan nan nan nan nan nan nan nan nan nan nan nan nan nan nan 271 278 282 292 294 290 289 286 297 296 302 303 296 296 295 303 307 310 312 311 317 315 315 312 310
nan 313 nan nan nan nan nan nan nan nan nan nan nan nan nan nan nan nan nan nan nan nan nan nan 268 273 284 288 283 287 288 290 295 298 304 300 295 295 296 299 306 307 312 307 314 317 314 313 310
nan 180 254 nan nan nan 235 nan nan nan nan nan nan nan nan nan nan nan nan nan nan nan nan nan nan 270 276 272 279 282 288 293 296 307 296 294 292 295 297 303 304 307 308 302 313 318 315 308 307
95 280 nan 169 nan nan nan nan nan nan nan nan nan nan nan nan nan nan nan nan 237 nan nan nan 263 268 262 268 276 285 296 296 298 287 289 285 287 287 302 303 306 305 306 298 301 316 305 297 303
169 nan 227 nan nan nan nan nan nan nan nan nan nan nan nan nan nan nan 224 222 220 nan nan 258 262 259 264 273 279 287 290 290 284 285 286 284 285 297 302 302 304 307 304 296 305 309 298 305 304
8 186 248 171 nan nan 155 nan nan 252 nan nan nan nan nan nan nan nan 219 213 216 239 250 253 252 262 269 275 279 283 285 283 283 284 285 286 296 296 301 303 301 311 302 302 306 289 300 311 314
54 115 244 198 187 nan nan nan 147 227 nan nan nan nan nan nan nan nan 222 210 212 233 243 248 254 264 271 274 279 282 280 281 278 283 287 295 298 298 301 303 305 306 304 305 311 303 305 311 314